Location: Gälforsberget
(66.6500°N, 22.4167°E)
Time: 21:34:18
(UTC+00:00)

Cosmos 2123 Rocket - Pass Details

Date: 11 April 2026
Orbit: 961 x 990 km, 82.9° (Epoch: 11 May)

Event Time Altitude Azimuth Distance (km) Brightness Sun altitude
Rises 20:04:25 0° 342° (NNW) 3,673 8.6 -10.2°
Reaches altitude 10° 20:06:55 10° 342° (NNW) 2,726 7.7 -10.4°
Maximum altitude 20:13:10 82° 256° (WSW) 992 4.1 -10.7°
Enters shadow 20:19:10 11° 170° (S) 2,631 5.7 -11.1°
